This is the latest recevied weather packets stored in our database for station/object K5NWZ. If no packets are shown the sender has not sent any weather packets the latest 10 day(s).
| Time | Temp. | Humidity | Pressure | Rain* | Wind** | Luminosity | Snow |
|---|---|---|---|---|---|---|---|
| 1777659971 | 15° C | 23% | 1028.7 hPa | 0 mm | - | 789 W/m² | - |
| 1777659668 | 15° C | 22% | 1028.9 hPa | 0 mm | - | 787 W/m² | - |
| 1777659366 | 13.89° C | 23% | 1028.8 hPa | 0 mm | - | 784 W/m² | - |
| 1777659062 | 13.89° C | 23% | 1029 hPa | 0 mm | - | 784 W/m² | - |
| 1777658760 | 15° C | 23% | 1029 hPa | 0 mm | - | 780 W/m² | - |
| 1777658456 | 13.89° C | 24% | 1029.1 hPa | 0 mm | - | 774 W/m² | - |
| 1777658153 | 13.89° C | 24% | 1029.4 hPa | 0 mm | - | 770 W/m² | - |
| 1777657850 | 15° C | 23% | 1029.1 hPa | 0 mm | - | 765 W/m² | - |
| 1777657547 | 13.89° C | 24% | 1029.4 hPa | 0 mm | - | 758 W/m² | - |
| 1777657244 | 14.44° C | 24% | 1029.4 hPa | 0 mm | - | 754 W/m² | - |
| 1777656941 | 13.89° C | 25% | 1029.3 hPa | 0 mm | - | 749 W/m² | - |
| 1777656638 | 13.89° C | 24% | 1029.4 hPa | 0 mm | - | 742 W/m² | - |
| 1777656333 | 13.33° C | 24% | 1029.3 hPa | 0 mm | - | 734 W/m² | - |
| 1777656029 | 12.78° C | 25% | 1029.6 hPa | 0 mm | - | 730 W/m² | - |
| 1777655726 | 13.89° C | 25% | 1029.7 hPa | 0 mm | - | 723 W/m² | - |
| 1777655422 | 14.44° C | 25% | 1029.6 hPa | 0 mm | - | 713 W/m² | - |
| 1777655119 | 13.89° C | 25% | 1029.7 hPa | 0 mm | - | 704 W/m² | - |
| 1777654816 | 12.78° C | 28% | 1029.4 hPa | 0 mm | - | 696 W/m² | - |
| 1777654515 | 13.33° C | 27% | 1029.7 hPa | 0 mm | - | 688 W/m² | - |
| 1777654212 | 13.33° C | 28% | 1029.6 hPa | 0 mm | - | 680 W/m² | - |
| 1777653909 | 12.78° C | 27% | 1029.7 hPa | 0 mm | - | 671 W/m² | - |
| 1777653606 | 12.78° C | 27% | 1029.9 hPa | 0 mm | - | 659 W/m² | - |
| 1777653302 | 13.33° C | 27% | 1029.7 hPa | 0 mm | - | 650 W/m² | - |
| 1777652998 | 12.22° C | 28% | 1029.9 hPa | 0 mm | - | 637 W/m² | - |
| 1777652695 | 12.78° C | 27% | 1029.8 hPa | 0 mm | - | 627 W/m² | - |
* Rain latest hour (hover to see other rain measurements)
** Current wind speed in m/s (hover to see current wind gust speed)